| time (UTC) | temp F | wind direction | speed MPH | gust MPH | rain 1hr in | rain 24hr in | rain mn in | humidity % | barometer mb |
| 20260508061535 | 63 | 77 | 9.0 | 13.0 | 0.00 | 0.00 | 0.00 | 83 | 1014.2 |
| 20260508060030 | 63 | 70 | 9.0 | 11.0 | 0.00 | 0.00 | 0.00 | 83 | 1014.1 |
| 20260508054540 | 63 | 77 | 8.0 | 10.0 | 0.00 | 0.00 | 0.00 | 83 | 1014.0 |
| 20260508053029 | 63 | 78 | 8.0 | 11.0 | 0.00 | 0.00 | 0.00 | 83 | 1014.0 |
| 20260508051611 | 63 | 100 | 8.0 | 12.0 | 0.00 | 0.00 | 0.00 | 83 | 1013.7 |
| 20260508050105 | 63 | 102 | 9.0 | 11.0 | 0.00 | 0.00 | 0.00 | 84 | 1013.7 |
| 20260508044555 | 63 | 102 | 8.0 | 12.0 | 0.00 | 0.00 | 0.00 | 84 | 1013.5 |
| 20260508043051 | 63 | 105 | 8.0 | 12.0 | 0.00 | 0.00 | 0.00 | 84 | 1013.3 |
| 20260508041555 | 63 | 101 | 10.0 | 13.0 | 0.00 | 0.00 | 0.00 | 85 | 1013.4 |
| 20260508040057 | 63 | 112 | 7.0 | 11.0 | 0.00 | 0.00 | 0.00 | 85 | 1013.1 |
| 20260508034548 | 63 | 114 | 9.0 | 12.0 | 0.00 | 0.00 | 0.00 | 85 | 1013.0 |
| 20260508033047 | 63 | 98 | 9.0 | 12.0 | 0.00 | 0.00 | 0.00 | 85 | 1013.0 |
| 20260508031546 | 63 | 110 | 8.0 | 12.0 | 0.00 | 0.00 | 0.00 | 85 | 1013.0 |
| 20260508030052 | 64 | 100 | 7.0 | 12.0 | 0.00 | 0.00 | 0.00 | 86 | 1013.0 |
| 20260508024542 | 63 | 94 | 9.0 | 12.0 | 0.00 | 0.00 | 0.00 | 86 | 1013.0 |
| 20260508023041 | 63 | 106 | 10.0 | 13.0 | 0.00 | 0.00 | 0.00 | 86 | 1012.9 |
| 20260508021540 | 63 | 93 | 10.0 | 15.0 | 0.00 | 0.00 | 0.00 | 86 | 1013.0 |
| 20260508020039 | 63 | 88 | 10.0 | 15.0 | 0.00 | 0.00 | 0.00 | 87 | 1013.1 |
| 20260508014534 | 64 | 102 | 10.0 | 14.0 | 0.00 | 0.00 | 0.00 | 86 | 1013.1 |
| 20260508013035 | 64 | 90 | 11.0 | 15.0 | 0.00 | 0.00 | 0.00 | 86 | 1013.0 |
| 20260508011529 | 64 | 93 | 10.0 | 13.0 | 0.00 | 0.00 | 0.00 | 85 | 1013.1 |
| 20260508010031 | 64 | 102 | 10.0 | 14.0 | 0.00 | 0.00 | 0.00 | 85 | 1013.1 |
| 20260508004530 | 64 | 110 | 10.0 | 13.0 | 0.00 | 0.00 | 0.00 | 85 | 1013.2 |
| 20260508003024 | 65 | 89 | 10.0 | 14.0 | 0.00 | 0.00 | 0.00 | 84 | 1013.1 |
| 20260508001522 | 65 | 98 | 10.0 | 13.0 | 0.00 | 0.00 | 0.00 | 84 | 1013.2 |
| 20260508000021 | 65 | 112 | 8.0 | 12.0 | 0.00 | 0.00 | 0.00 | 84 | 1013.3 |
| 20260507234622 | 65 | 109 | 9.0 | 14.0 | 0.00 | 0.00 | 0.00 | 84 | 1013.3 |
| 20260507233111 | 65 | 104 | 10.0 | 13.0 | 0.00 | 0.02 | 0.00 | 84 | 1013.4 |
| 20260507231550 | 65 | 116 | 9.0 | 13.0 | 0.00 | 0.02 | 0.00 | 84 | 1013.4 |
| 20260507230048 | 65 | 121 | 8.0 | 14.0 | 0.00 | 0.02 | 0.00 | 84 | 1013.4 |
| 20260507224548 | 65 | 114 | 9.0 | 14.0 | 0.00 | 0.02 | 0.00 | 84 | 1013.4 |
| 20260507223056 | 65 | 118 | 10.0 | 14.0 | 0.00 | 0.02 | 0.00 | 84 | 1013.3 |
| 20260507221544 | 65 | 110 | 9.0 | 14.0 | 0.00 | 0.02 | 0.00 | 84 | 1013.3 |
| 20260507220040 | 65 | 120 | 9.0 | 12.0 | 0.00 | 0.02 | 0.00 | 84 | 1013.2 |
| 20260507214536 | 65 | 105 | 8.0 | 12.0 | 0.00 | 0.02 | 0.00 | 83 | 1013.1 |
| 20260507213036 | 65 | 107 | 7.0 | 10.0 | 0.00 | 0.02 | 0.00 | 83 | 1013.2 |
| 20260507211541 | 65 | 110 | 8.0 | 11.0 | 0.00 | 0.02 | 0.00 | 82 | 1013.2 |
| 20260507210030 | 65 | 117 | 8.0 | 11.0 | 0.00 | 0.02 | 0.00 | 82 | 1013.2 |
| 20260507204525 | 65 | 111 | 6.0 | 9.0 | 0.00 | 0.02 | 0.00 | 81 | 1013.4 |
| 20260507203025 | 65 | 103 | 7.0 | 10.0 | 0.00 | 0.02 | 0.02 | 81 | 1013.4 |
| 20260507201524 | 65 | 127 | 8.0 | 11.0 | 0.00 | 0.02 | 0.02 | 80 | 1013.4 |
| 20260507200019 | 65 | 359 | 7.0 | 12.0 | 0.00 | 0.02 | 0.02 | 80 | 1013.4 |
| 20260507194530 | 65 | 112 | 8.0 | 11.0 | 0.00 | 0.02 | 0.02 | 80 | 1013.3 |
| 20260507193016 | 65 | 119 | 8.0 | 11.0 | 0.00 | 0.03 | 0.02 | 80 | 1013.2 |
| 20260507191516 | 65 | 131 | 9.0 | 14.0 | 0.00 | 0.03 | 0.02 | 81 | 1013.0 |
| 20260507190019 | 65 | 127 | 9.0 | 14.0 | 0.00 | 0.03 | 0.02 | 81 | 1013.0 |
| 20260507184513 | 65 | 122 | 9.0 | 13.0 | 0.00 | 0.03 | 0.02 | 80 | 1012.9 |
| 20260507183014 | 65 | 126 | 10.0 | 15.0 | 0.00 | 0.13 | 0.02 | 79 | 1012.7 |
| 20260507181510 | 65 | 122 | 10.0 | 15.0 | 0.00 | 0.13 | 0.02 | 75 | 1012.6 |
| 20260507180042 | 65 | 118 | 10.0 | 13.0 | 0.00 | 0.13 | 0.02 | 75 | 1012.5 |
| 20260507174540 | 65 | 116 | 10.0 | 13.0 | 0.00 | 0.13 | 0.02 | 74 | 1012.3 |
| 20260507173045 | 65 | 120 | 8.0 | 15.0 | 0.00 | 0.13 | 0.02 | 74 | 1012.3 |
| 20260507171537 | 65 | 124 | 8.0 | 12.0 | 0.00 | 0.13 | 0.02 | 73 | 1012.3 |
| 20260507170037 | 66 | 112 | 10.0 | 14.0 | 0.00 | 0.13 | 0.02 | 73 | 1012.1 |
| 20260507164546 | 65 | 108 | 9.0 | 12.0 | 0.00 | 0.13 | 0.02 | 70 | 1012.1 |
| 20260507163033 | 66 | 116 | 8.0 | 12.0 | 0.00 | 0.13 | 0.02 | 73 | 1011.9 |
| 20260507161547 | 65 | 95 | 9.0 | 11.0 | 0.00 | 0.13 | 0.02 | 71 | 1011.9 |
| 20260507160033 | 66 | 104 | 7.0 | 12.0 | 0.00 | 0.13 | 0.02 | 71 | 1011.9 |
| 20260507154532 | 66 | 94 | 9.0 | 12.0 | 0.00 | 0.13 | 0.02 | 71 | 1011.9 |
| 20260507153035 | 66 | 120 | 9.0 | 11.0 | 0.00 | 0.18 | 0.02 | 69 | 1012.1 |
| 20260507151533 | 66 | 112 | 8.0 | 12.0 | 0.00 | 0.18 | 0.02 | 70 | 1012.1 |
| 20260507150033 | 66 | 95 | 10.0 | 12.0 | 0.00 | 0.18 | 0.02 | 71 | 1012.1 |
| 20260507144534 | 66 | 100 | 8.0 | 13.0 | 0.00 | 0.18 | 0.02 | 72 | 1012.1 |
| 20260507143028 | 66 | 108 | 10.0 | 13.0 | 0.00 | 0.18 | 0.02 | 71 | 1012.2 |
| 20260507141525 | 66 | 120 | 8.0 | 11.0 | 0.00 | 0.18 | 0.02 | 72 | 1012.2 |
| 20260507140025 | 66 | 101 | 9.0 | 13.0 | 0.00 | 0.18 | 0.02 | 71 | 1012.2 |
| 20260507134524 | 66 | 98 | 9.0 | 12.0 | 0.00 | 0.18 | 0.02 | 70 | 1012.1 |
| 20260507133025 | 66 | 86 | 9.0 | 11.0 | 0.00 | 0.18 | 0.02 | 72 | 1012.3 |
| 20260507131521 | 66 | 81 | 8.0 | 10.0 | 0.00 | 0.18 | 0.02 | 72 | 1012.4 |
| 20260507130020 | 65 | 77 | 9.0 | 11.0 | 0.00 | 0.18 | 0.02 | 72 | 1012.4 |
| 20260507124521 | 65 | 78 | 8.0 | 11.0 | 0.00 | 0.18 | 0.02 | 71 | 1012.4 |
| 20260507123020 | 66 | 63 | 7.0 | 10.0 | 0.00 | 0.18 | 0.02 | 72 | 1012.5 |
| 20260507121517 | 65 | 51 | 7.0 | 10.0 | 0.00 | 0.18 | 0.02 | 71 | 1012.5 |
| 20260507120016 | 66 | 64 | 7.0 | 10.0 | 0.00 | 0.18 | 0.02 | 70 | 1012.6 |
| 20260507114516 | 66 | 73 | 8.0 | 9.0 | 0.00 | 0.18 | 0.02 | 70 | 1012.6 |
| 20260507113033 | 66 | 55 | 7.0 | 9.0 | 0.00 | 0.18 | 0.02 | 69 | 1012.6 |
| 20260507111513 | 65 | 65 | 7.0 | 9.0 | 0.00 | 0.18 | 0.02 | 70 | 1012.7 |
| 20260507110015 | 66 | 62 | 5.0 | 9.0 | 0.00 | 0.18 | 0.02 | 70 | 1012.8 |
| 20260507104513 | 65 | 60 | 6.0 | 9.0 | 0.00 | 0.18 | 0.02 | 64 | 1012.9 |
| 20260507103010 | 65 | 53 | 6.0 | 7.0 | 0.00 | 0.18 | 0.02 | 68 | 1013.0 |
| 20260507101514 | 65 | 47 | 8.0 | 9.0 | 0.00 | 0.18 | 0.02 | 68 | 1013.1 |
| 20260507100006 | 65 | 56 | 6.0 | 7.0 | 0.00 | 0.18 | 0.02 | 69 | 1013.2 |
| 20260507094506 | 65 | 54 | 6.0 | 9.0 | 0.00 | 0.18 | 0.02 | 65 | 1013.2 |
| 20260507093003 | 65 | 58 | 4.0 | 6.0 | 0.00 | 0.18 | 0.02 | 64 | 1013.1 |
| 20260507091635 | 65 | 87 | 5.0 | 8.0 | 0.00 | 0.18 | 0.02 | 65 | 1013.2 |
| 20260507090057 | 65 | 79 | 4.0 | 7.0 | 0.00 | 0.18 | 0.02 | 63 | 1013.0 |
| 20260507084609 | 65 | 49 | 3.0 | 5.0 | 0.00 | 0.18 | 0.02 | 63 | 1012.8 |
| 20260507083052 | 65 | 342 | 0.0 | 5.0 | 0.00 | 0.19 | 0.02 | 61 | 1012.8 |
| 20260507081532 | 65 | 256 | 4.0 | 7.0 | 0.00 | 0.19 | 0.02 | 61 | 1012.7 |
| 20260507080016 | 65 | 328 | 3.0 | 5.0 | 0.00 | 0.19 | 0.02 | 58 | 1012.6 |
| 20260507074550 | 65 | 239 | 2.0 | 5.0 | 0.00 | 0.19 | 0.02 | 56 | 1012.6 |
| 20260507073044 | 64 | 239 | 1.0 | 4.0 | 0.00 | 0.19 | 0.02 | 60 | 1012.6 |
| 20260507071511 | 63 | 238 | 3.0 | 7.0 | 0.00 | 0.19 | 0.02 | 63 | 1012.6 |
| 20260507070013 | 63 | 233 | 4.0 | 6.0 | 0.00 | 0.19 | 0.02 | 65 | 1012.5 |
| 20260507064539 | 62 | 252 | 6.0 | 9.0 | 0.00 | 0.19 | 0.02 | 66 | 1012.4 |
| 20260507063041 | 62 | 248 | 6.0 | 10.0 | 0.00 | 0.19 | 0.02 | 65 | 1012.3 |